Home > Weather > Pittsburgh > Past weeks

Flag for U.S.A. Weather for the Past 2 Weeks in Pittsburgh, Pennsylvania, U.S.A.

Now
46 °F

Overcast.


Feels Like: 42 °F
Forecast: 33 / 47 °F
Wind: 8 mph from South

Location: Allegheny County Airport

Current Time: Feb 8, 2016 at 12:36:49 PM

Latest Report: Feb 8, 2016 at 11:53 AM


Visibility: 10 mi

Pressure: 29.62 "Hg

Humidity: 46%

Dew point: 26 °F

Location of PittsburghLocation

Historic Weather in Pittsburgh — Graph

°F

Pittsburgh Temperature Yesterday

Maximum temperature yesterday: 51 °F (at 3:53 PM)
Minimum temperature yesterday: 26 °F (at 6:53 AM)
Average temperature yesterday: 39 °F

High & Low Weather Summary for the Past Weeks

 TemperatureHumidityPressure
High65 °F (Jan 31, 2:53 PM)93% (Feb 3, 8:53 AM)30.41 "Hg (Feb 3, 8:53 AM)
Low19 °F (Jan 25, 3:04 AM)28% (Jan 25, 10:53 PM)29.59 "Hg (Jan 29, 3:53 AM)
Average39 °F60%30.02 "Hg
* Reported Jan 24 11:00 AM — Feb 8 10:53 AM, Pittsburgh, Weather by CustomWeather, © 2016

Note: Actual official high and low records may vary slightly from our data, if they occured in-between our weather recording intervals... More about our weather records

Advertising

Pittsburgh Weather History for the Previous 24 Hours

 ConditionsComfort  
Time TempWeatherWind HumidityBarometerVisibility
10:53 AM
Mon, Feb 8
43 °FOvercast.8 mph49%29.65 "Hg10 mi
9:53 AM40 °FPartly sunny.6 mph60%29.66 "Hg9 mi
8:53 AM37 °FScattered clouds.7 mph62%29.68 "Hg10 mi
7:53 AM32 °FPartly sunny.6 mph73%29.70 "Hg7 mi
6:53 AM35 °FPassing clouds.6 mph64%29.70 "Hg10 mi
5:53 AM32 °FPassing clouds.7 mph73%29.71 "Hg9 mi
4:53 AM35 °FClear.8 mph67%29.72 "Hg7 mi
2:53 AM36 °FClear.8 mph59%29.77 "Hg10 mi
1:53 AM38 °FClear.7 mph55%29.79 "Hg10 mi
12:53 AM38 °FClear.7 mph55%29.82 "Hg10 mi
11:53 PM
Sun, Feb 7
40 °FClear.7 mph51%29.85 "Hg10 mi
10:53 PM41 °FClear.7 mph49%29.86 "Hg10 mi
9:53 PM42 °FClear.7 mph49%29.88 "Hg10 mi
8:53 PM42 °FClear.7 mph47%29.90 "Hg10 mi
7:53 PM43 °FClear.7 mph45%29.93 "Hg10 mi
6:53 PM45 °FClear.6 mph42%29.95 "Hg10 mi
5:53 PM48 °FClear.5 mph36%29.94 "Hg10 mi
4:53 PM50 °FSunny.5 mph33%29.94 "Hg10 mi
3:53 PM51 °FSunny.8 mph35%29.95 "Hg10 mi
2:53 PM50 °FSunny.3 mph36%29.97 "Hg10 mi
1:53 PM49 °FSunny.9 mph38%30.01 "Hg10 mi
12:53 PM47 °FSunny.8 mph39%30.05 "Hg10 mi
Weather by CustomWeather, © 2016

See weather overviewHow to use our weather pages